Tiempo cada hora Murliganj

Hoy, 19 Octubre, Lunes

Tiempo Temperatura Precipitaciones Viento Presión Humedad
00:00 +25°C° 0 mm 0 mps 751 mmHg 57%
01:00 +25°C° 0 mm 0 mps 751 mmHg 58%
02:00 +25°C° 0 mm 0 mps 750 mmHg 59%
03:00 +24°C° 0 mm 0 mps 750 mmHg 61%
04:00 +24°C° 0 mm 0 mps 750 mmHg 62%
05:00 +24°C° 0 mm 0 mps 750 mmHg 63%
06:00 +26°C° 0 mm 1 mps 751 mmHg 62%
07:00 +27°C° 0 mm 1 mps 751 mmHg 59%
08:00 +29°C° 0 mm 1 mps 751 mmHg 56%
09:00 +30°C° 0 mm 1 mps 752 mmHg 52%
10:00 +32°C° 0 mm 1 mps 752 mmHg 48%
11:00 +33°C° 0 mm 1 mps 751 mmHg 44%
12:00 +35°C° 0 mm 1 mps 751 mmHg 38%
13:00 +36°C° 0 mm 2 mps 751 mmHg 38%
14:00 +36°C° 0 mm 2 mps 750 mmHg 38%
15:00 +36°C° 0 mm 2 mps 749 mmHg 38%
16:00 +34°C° 0 mm 2 mps 749 mmHg 43%
17:00 +32°C° 0 mm 2 mps 749 mmHg 47%
18:00 +30°C° 0 mm 2 mps 749 mmHg 52%
19:00 +29°C° 0 mm 1 mps 749 mmHg 54%
20:00 +29°C° 0 mm 1 mps 750 mmHg 56%
21:00 +26°C° 0 mm 0 mps 750 mmHg 58%
22:00 +26°C° 0 mm 0 mps 750 mmHg 59%
23:00 +25°C° 0 mm 0 mps 750 mmHg 61%

Mañana, 20 Octubre, Martes

Tiempo Temperatura Precipitaciones Viento Presión Humedad
00:00 +27°C° 0 mm 1 mps 750 mmHg 62%
01:00 +26°C° 0 mm 1 mps 750 mmHg 64%
02:00 +26°C° 0 mm 1 mps 750 mmHg 65%
03:00 +26°C° 0 mm 1 mps 750 mmHg 66%
04:00 +25°C° 0 mm 1 mps 750 mmHg 67%
05:00 +23°C° 0 mm 0 mps 750 mmHg 68%
06:00 +23°C° 0 mm 0 mps 750 mmHg 69%
07:00 +26°C° 0 mm 1 mps 751 mmHg 65%
08:00 +28°C° 0 mm 1 mps 751 mmHg 62%
09:00 +30°C° 0 mm 2 mps 752 mmHg 58%
10:00 +31°C° 0 mm 1 mps 752 mmHg 55%
11:00 +32°C° 0 mm 1 mps 752 mmHg 51%
12:00 +33°C° 0 mm 1 mps 752 mmHg 47%
13:00 +34°C° 0 mm 1 mps 751 mmHg 45%
14:00 +34°C° 0 mm 1 mps 750 mmHg 43%
15:00 +34°C° 0 mm 1 mps 749 mmHg 41%
16:00 +33°C° 0 mm 1 mps 749 mmHg 45%
17:00 +31°C° 0 mm 1 mps 749 mmHg 48%
18:00 +30°C° 0 mm 1 mps 750 mmHg 52%
19:00 +29°C° 0 mm 1 mps 750 mmHg 53%
20:00 +29°C° 0 mm 1 mps 751 mmHg 55%
21:00 +28°C° 0 mm 1 mps 752 mmHg 56%
22:00 +28°C° 0 mm 1 mps 752 mmHg 58%
23:00 +27°C° 0 mm 2 mps 752 mmHg 61%

Pasado mañana, 21 Octubre, Miércoles

Tiempo Temperatura Precipitaciones Viento Presión Humedad
00:00 +27°C° 0 mm 2 mps 752 mmHg 63%
01:00 +26°C° 0 mm 2 mps 752 mmHg 66%
02:00 +26°C° 0 mm 2 mps 751 mmHg 68%
03:00 +26°C° 0 mm 2 mps 751 mmHg 70%
04:00 +25°C° 0 mm 2 mps 751 mmHg 71%
05:00 +25°C° 0 mm 2 mps 751 mmHg 73%
06:00 +25°C° 0 mm 2 mps 751 mmHg 75%
07:00 +26°C° 0 mm 2 mps 752 mmHg 71%
08:00 +28°C° 0 mm 2 mps 752 mmHg 68%
09:00 +29°C° 0 mm 3 mps 753 mmHg 64%
10:00 +31°C° 0 mm 3 mps 753 mmHg 60%
11:00 +33°C° 0 mm 3 mps 752 mmHg 56%
12:00 +34°C° 0 mm 2 mps 752 mmHg 52%
13:00 +35°C° 0 mm 2 mps 751 mmHg 49%
14:00 +35°C° 0 mm 2 mps 750 mmHg 46%
15:00 +34°C° 0 mm 1 mps 750 mmHg 44%
16:00 +33°C° 0 mm 1 mps 750 mmHg 48%
17:00 +32°C° 0 mm 1 mps 750 mmHg 52%
18:00 +30°C° 0 mm 1 mps 750 mmHg 56%
19:00 +30°C° 0 mm 2 mps 750 mmHg 58%
20:00 +29°C° 0 mm 2 mps 751 mmHg 61%
21:00 +28°C° 0 mm 2 mps 751 mmHg 64%
22:00 +28°C° 0 mm 2 mps 751 mmHg 66%
23:00 +27°C° 0 mm 2 mps 751 mmHg 68%

22 Octubre, Jueves

Tiempo Temperatura Precipitaciones Viento Presión Humedad
00:00 +27°C° 0 mm 2 mps 751 mmHg 71%
01:00 +27°C° 0 mm 2 mps 751 mmHg 72%
02:00 +26°C° 0 mm 2 mps 751 mmHg 73%
03:00 +26°C° 0 mm 2 mps 750 mmHg 74%
04:00 +26°C° 0 mm 2 mps 750 mmHg 76%
05:00 +25°C° 0 mm 2 mps 750 mmHg 78%
06:00 +25°C° 0 mm 2 mps 750 mmHg 79%
07:00 +27°C° 0 mm 3 mps 750 mmHg 75%
08:00 +28°C° 0 mm 3 mps 751 mmHg 71%
09:00 +30°C° 0 mm 3 mps 751 mmHg 68%
10:00 +31°C° 0 mm 3 mps 751 mmHg 63%
11:00 +33°C° 0 mm 3 mps 751 mmHg 58%
12:00 +34°C° 0 mm 3 mps 751 mmHg 52%
13:00 +34°C° 0 mm 3 mps 750 mmHg 53%
14:00 +34°C° 0 mm 3 mps 750 mmHg 53%
15:00 +35°C° 0 mm 3 mps 749 mmHg 54%
16:00 +33°C° 0 mm 3 mps 749 mmHg 59%
17:00 +31°C° 0 mm 3 mps 749 mmHg 64%
18:00 +30°C° 0 mm 2 mps 749 mmHg 70%
19:00 +29°C° 0.1 mm 3 mps 750 mmHg 73%
20:00 +29°C° 0.1 mm 3 mps 750 mmHg 76%
21:00 +28°C° 0.1 mm 3 mps 751 mmHg 80%
22:00 +27°C° 1 mm 3 mps 751 mmHg 84%
23:00 +27°C° 1 mm 3 mps 751 mmHg 88%

23 Octubre, Viernes

Tiempo Temperatura Precipitaciones Viento Presión Humedad
00:00 +26°C° 1 mm 3 mps 751 mmHg 92%
01:00 +26°C° 0.2 mm 3 mps 750 mmHg 93%
02:00 +25°C° 0.2 mm 2 mps 750 mmHg 94%
03:00 +25°C° 0.2 mm 2 mps 750 mmHg 95%
04:00 +25°C° 0 mm 2 mps 750 mmHg 95%
05:00 +25°C° 0 mm 2 mps 750 mmHg 95%
06:00 +25°C° 0 mm 3 mps 750 mmHg 95%
07:00 +26°C° 0 mm 3 mps 750 mmHg 92%
08:00 +27°C° 0 mm 3 mps 751 mmHg 88%
09:00 +27°C° 0 mm 3 mps 751 mmHg 84%
10:00 +29°C° 0 mm 2 mps 751 mmHg 78%
11:00 +30°C° 0 mm 2 mps 751 mmHg 71%
12:00 +31°C° 0 mm 2 mps 750 mmHg 65%
13:00 +32°C° 0 mm 1 mps 750 mmHg 61%
14:00 +32°C° 0 mm 1 mps 749 mmHg 58%
15:00 +33°C° 0 mm 1 mps 749 mmHg 55%
16:00 +32°C° 0 mm 1 mps 749 mmHg 59%
17:00 +30°C° 0 mm 1 mps 749 mmHg 63%
18:00 +29°C° 0 mm 1 mps 749 mmHg 68%
19:00 +29°C° 0 mm 1 mps 750 mmHg 69%
20:00 +28°C° 0 mm 1 mps 750 mmHg 71%
21:00 +28°C° 0 mm 1 mps 751 mmHg 73%
22:00 +27°C° 0 mm 1 mps 751 mmHg 74%
23:00 +27°C° 0 mm 2 mps 751 mmHg 74%

24 Octubre, Sábado

Tiempo Temperatura Precipitaciones Viento Presión Humedad
00:00 +27°C° 0 mm 2 mps 751 mmHg 75%
01:00 +26°C° 0 mm 2 mps 751 mmHg 77%
02:00 +26°C° 0 mm 2 mps 751 mmHg 78%
03:00 +26°C° 0 mm 2 mps 750 mmHg 80%
04:00 +25°C° 0 mm 2 mps 750 mmHg 82%
05:00 +25°C° 0 mm 2 mps 750 mmHg 84%
06:00 +25°C° 0 mm 2 mps 750 mmHg 85%
07:00 +26°C° 0 mm 2 mps 751 mmHg 81%
08:00 +27°C° 0 mm 3 mps 751 mmHg 77%
09:00 +29°C° 0 mm 3 mps 752 mmHg 74%
10:00 +30°C° 0 mm 3 mps 752 mmHg 68%
11:00 +31°C° 0 mm 3 mps 751 mmHg 62%
12:00 +34°C° 0 mm 4 mps 751 mmHg 56%
13:00 +34°C° 0 mm 3 mps 751 mmHg 55%
14:00 +34°C° 0 mm 3 mps 750 mmHg 54%
15:00 +34°C° 0 mm 3 mps 750 mmHg 53%
16:00 +33°C° 0 mm 3 mps 750 mmHg 58%
17:00 +31°C° 0 mm 2 mps 750 mmHg 63%
18:00 +29°C° 0 mm 2 mps 750 mmHg 68%
19:00 +29°C° 0 mm 2 mps 751 mmHg 71%
20:00 +28°C° 0 mm 2 mps 752 mmHg 74%
21:00 +28°C° 0 mm 2 mps 752 mmHg 78%
22:00 +27°C° 0 mm 2 mps 752 mmHg 80%
23:00 +27°C° 0 mm 2 mps 752 mmHg 81%

25 Octubre, Domingo

Tiempo Temperatura Precipitaciones Viento Presión Humedad
00:00 +27°C° 0 mm 2 mps 752 mmHg 83%
01:00 +26°C° 0 mm 2 mps 752 mmHg 84%
02:00 +26°C° 0 mm 2 mps 752 mmHg 85%
03:00 +26°C° 0 mm 2 mps 752 mmHg 86%
04:00 +25°C° 0 mm 2 mps 752 mmHg 87%
05:00 +25°C° 0 mm 2 mps 752 mmHg 87%
06:00 +25°C° 0 mm 2 mps 752 mmHg 87%
07:00 +26°C° 0 mm 3 mps 752 mmHg 83%
08:00 +28°C° 0 mm 3 mps 753 mmHg 78%
09:00 +29°C° 0 mm 3 mps 753 mmHg 73%
10:00 +30°C° 0 mm 3 mps 753 mmHg 69%
11:00 +31°C° 0 mm 3 mps 753 mmHg 65%
12:00 +34°C° 0 mm 3 mps 753 mmHg 60%
13:00 +34°C° 0 mm 3 mps 752 mmHg 60%
14:00 +34°C° 0 mm 2 mps 752 mmHg 59%
15:00 +34°C° 0 mm 2 mps 751 mmHg 59%
16:00 +32°C° 0 mm 2 mps 751 mmHg 63%
17:00 +31°C° 0 mm 2 mps 751 mmHg 66%
18:00 +30°C° 0 mm 2 mps 751 mmHg 70%
19:00 +29°C° 0 mm 2 mps 752 mmHg 72%
20:00 +29°C° 0 mm 2 mps 752 mmHg 74%
21:00 +28°C° 0 mm 2 mps 753 mmHg 77%
22:00 +28°C° 0 mm 2 mps 753 mmHg 79%
23:00 +28°C° 0 mm 1 mps 752 mmHg 81%
Mostrar más

Necesitamos Su Consentimiento

Meteoprog y nuestros Proveedores de Servicios pueden almacenar y acceder a sus datos personales como cookies, identificadores de dispositivo u otras tecnologías similares de su dispositivo y procesar dichos datos para personalizar contenido y anuncios, además de ofrecer funciones de redes sociales y analizar el tráfico.

  • Almacenar y/o acceder a información en su dispositivo

    Se puede almacenar o acceder a cookies, identificadores de dispositivo u otra información de su dispositivo para los fines anteriormente indicados.

  • Anuncios y contenido personalizados, medición de anuncios y contenido, percepciones del público, y desarrollo de productos

    Los anuncios y el contenido pueden personalizarse en base a su perfil. Se pueden añadir más datos para personalizar mejor los anuncios y contenidos. Se puede medir el rendimiento de los anuncios y contenidos. Se puede obtener la percepción sobre el público que ha visto los anuncios y contenidos. Dichos datos pueden usarse para desarrollar o mejorar la experiencia del usuario, sistemas y software.

Al hacer clic en ‘Estoy De Acuerdo’ usted permitirá el uso de las cookies, identificadores de dispositivo, balizas web u otras tecnologías similares indicadas. Su configuración puede cambiarse desde el navegador de su dispositivo.

Para ciertos fines, los intereses legítimos pueden ser considerados por encima del consentimiento. Puede leer más sobre ello en nuestra Política de Privacidad y Cookies.